Location: Litvinovka
(48.6667°N, 34.3500°E)
Time: 11:49:19
(UTC+00:00)

CZ-4 R/B - Pass Details

Date: 18 September 2020
Orbit: 530 x 600 km, 97.7° (Epoch: 30 October)

Event Time Altitude Azimuth Distance (km) Brightness Sun altitude
Rises 17:08:23 0° 200° (SSW) 2,836 5.0 -13.8°
Reaches altitude 10° 17:10:58 10° 216° (SW) 1,940 4.3 -14.2°
Maximum altitude 17:14:16 22° 267° (W) 1,328 4.1 -14.7°
Drops below altitude 10° 17:17:34 10° 319° (NW) 1,944 5.1 -15.2°
Sets 17:20:09 0° 335° (NNW) 2,844 5.7 -15.6°
